Content
SEND FEEDBACK

Daily
Averages
Monthly
Summary
United States of America

BEACON, NEW YORK


Home > North America > United States > New York
Elevation: 272 feet     Latitude: 41 31N     Longitude: 073 55W

WEATHER
 
SELECT A DAY
Number of Records: 194,455;   Date Range: 1/1/95 - 7/22/14
 
SHARE

PRINT THIS DATA

[ ← Previous Day ]
WEATHER ALMANAC - JANUARY 3, 2013
[ Next Day → ]
[ °C ]   °F
Weather ElementAverageHighLow
Temperature13.6 °F23 °F (3:53 pm)3 °F (7:53 am)
Dewpoint1.3 °F10 °F (11:53 pm)-7.1 °F (7:53 am)
Humidity58.8 %74 % (11:53 pm)44 % (3:53 pm)
Barometer30.14 in30.23 in (6:53 am)30.03 in (11:53 pm)
Wind Speed1.6 mph8.1 mph (3:53 am)
Weather ElementAverage
Visibility10 mi
Wind DirectionESE (107 °)

Weather ElementTotal
Precipitation---
Heating Degree Days52 (Base 65)
Averaged from 23 records on January 3, 2013
WEATHER CONDITIONS BREAKOUT
WIND DIRECTION BREAKOUT
WEATHER BY HOUR - JANUARY 3, 2013
[ °C ]   °F
Local TimeTemperatureDewpointHumidityBarometerVisibilityWind DirectionWind SpeedGust SpeedPrecipitationEventsConditions
1:53 AM15.1 °F1.0 °F54 %30.20 in10.0 miNNW (340°)4.6 mphClear
2:53 AM10.9 °F0.0 °F61 %30.20 in10.0 miNorth (350°)5.8 mphClear
3:53 AM9.0 °F-2.9 °F59 %30.22 in10.0 miNorth (360°)8.1 mphClear
4:53 AM7.0 °F-5.1 °F58 %30.22 in10.0 miNorth (360°)4.6 mphClear
5:53 AM5.0 °F-6.0 °F61 %30.22 in10.0 miNNW (330°)3.5 mphClear
6:53 AM3.9 °F-6.0 °F64 %30.23 in10.0 miCalmClear
7:53 AM3.0 °F-7.1 °F63 %30.22 in10.0 miNorth (360°)3.5 mphClear
8:53 AM5.0 °F-6.0 °F61 %30.22 in10.0 miNorth (360°)5.8 mphClear
9:53 AM8.1 °F-5.1 °F55 %30.22 in10.0 miCalmClear
10:53 AM10.0 °F-2.9 °F56 %30.21 in10.0 miCalmClear
11:53 AM14.0 °F-0.9 °F52 %30.16 in10.0 miCalmClear
12:53 PM16.0 °F0.0 °F49 %30.12 in10.0 miCalmClear
1:53 PM18.0 °F1.0 °F48 %30.10 in10.0 miCalmClear
2:53 PM19.9 °F3.9 °F50 %30.08 in10.0 miCalmClear
3:53 PM23.0 °F3.9 °F44 %30.07 in10.0 miCalmClear
4:53 PM19.0 °F3.9 °F52 %30.07 in10.0 miCalmPartly Cloudy
5:53 PM18.0 °F6.1 °F60 %30.07 in10.0 miCalmMostly Cloudy
6:53 PM19.0 °F7.0 °F59 %30.07 in10.0 miCalmOvercast
7:53 PM19.0 °F9.0 °F65 %30.07 in10.0 miCalmOvercast
8:53 PM18.0 °F9.0 °F68 %30.06 in10.0 miCalmOvercast
9:53 PM18.0 °F9.0 °F68 %30.05 in10.0 miCalmOvercast
10:53 PM17.1 °F9.0 °F71 %30.05 in10.0 miCalmOvercast
11:53 PM17.1 °F10.0 °F74 %30.03 in9.0 miCalmOvercast
Hourly data recorded from KPOU, located miles away from Beacon, New York







STORIES FROM OUR PARTNERS